• In Latvia
  • List of Countries
  • For 7 days
  • Water Temperature
  • Satellite Maps
  • Weather Map
  • Weather Widgets
  • user-avatar
    Login

    Hourly Weather Perth

    Today, 8 December, Thursday

    Time Temperature Precipitation Wind Pressure Humidity
    00:00 +16°C° 0 mm 5 mps 762 mmHg 47%
    01:00 +16°C° 0 mm 5 mps 762 mmHg 50%
    02:00 +15°C° 0 mm 6 mps 762 mmHg 52%
    03:00 +14°C° 0 mm 6 mps 762 mmHg 57%
    04:00 +13°C° 0 mm 6 mps 762 mmHg 62%
    05:00 +13°C° 0 mm 5 mps 763 mmHg 67%
    06:00 +14°C° 0 mm 5 mps 763 mmHg 60%
    07:00 +16°C° 0 mm 5 mps 763 mmHg 53%
    08:00 +19°C° 0 mm 5 mps 763 mmHg 45%
    09:00 +22°C° 0 mm 4 mps 763 mmHg 37%
    10:00 +26°C° 0 mm 4 mps 762 mmHg 28%
    11:00 +29°C° 0 mm 3 mps 762 mmHg 20%
    12:00 +30°C° 0 mm 3 mps 761 mmHg 17%
    13:00 +33°C° 0 mm 4 mps 760 mmHg 14%
    14:00 +35°C° 0 mm 4 mps 759 mmHg 11%
    15:00 +35°C° 0 mm 4 mps 759 mmHg 12%
    16:00 +34°C° 0 mm 4 mps 759 mmHg 13%
    17:00 +34°C° 0 mm 4 mps 759 mmHg 13%
    18:00 +29°C° 0 mm 4 mps 759 mmHg 22%
    19:00 +25°C° 0 mm 4 mps 759 mmHg 30%
    20:00 +20°C° 0 mm 4 mps 759 mmHg 38%
    21:00 +20°C° 0 mm 4 mps 759 mmHg 34%
    22:00 +20°C° 0 mm 4 mps 759 mmHg 31%
    23:00 +20°C° 0 mm 4 mps 759 mmHg 27%

    Tomorrow, 9 December, Friday

    Time Temperature Precipitation Wind Pressure Humidity
    00:00 +20°C° 0 mm 4 mps 759 mmHg 27%
    01:00 +21°C° 0 mm 4 mps 759 mmHg 28%
    02:00 +21°C° 0 mm 5 mps 758 mmHg 29%
    03:00 +20°C° 0 mm 5 mps 758 mmHg 30%
    04:00 +20°C° 0 mm 5 mps 759 mmHg 31%
    05:00 +19°C° 0 mm 4 mps 759 mmHg 32%
    06:00 +22°C° 0 mm 4 mps 759 mmHg 28%
    07:00 +25°C° 0 mm 4 mps 759 mmHg 23%
    08:00 +28°C° 0 mm 4 mps 759 mmHg 19%
    09:00 +31°C° 0 mm 3 mps 759 mmHg 17%
    10:00 +35°C° 0 mm 3 mps 758 mmHg 14%
    11:00 +39°C° 0 mm 2 mps 758 mmHg 11%
    12:00 +40°C° 0 mm 2 mps 757 mmHg 10%
    13:00 +42°C° 0 mm 3 mps 757 mmHg 9%
    14:00 +43°C° 0 mm 3 mps 756 mmHg 9%
    15:00 +42°C° 0 mm 4 mps 756 mmHg 10%
    16:00 +41°C° 0 mm 4 mps 756 mmHg 10%
    17:00 +40°C° 0 mm 5 mps 755 mmHg 11%
    18:00 +36°C° 0 mm 5 mps 755 mmHg 14%
    19:00 +33°C° 0 mm 4 mps 756 mmHg 17%
    20:00 +29°C° 0 mm 4 mps 756 mmHg 20%
    21:00 +28°C° 0 mm 4 mps 756 mmHg 22%
    22:00 +27°C° 0 mm 4 mps 757 mmHg 23%
    23:00 +26°C° 0 mm 4 mps 757 mmHg 25%

    Day after tomorrow, 10 December, Saturday

    Time Temperature Precipitation Wind Pressure Humidity
    00:00 +26°C° 0 mm 4 mps 757 mmHg 24%
    01:00 +26°C° 0 mm 4 mps 756 mmHg 23%
    02:00 +25°C° 0 mm 4 mps 756 mmHg 21%
    03:00 +26°C° 0 mm 4 mps 756 mmHg 21%
    04:00 +26°C° 0 mm 4 mps 756 mmHg 21%
    05:00 +27°C° 0 mm 4 mps 756 mmHg 21%
    06:00 +29°C° 0 mm 4 mps 756 mmHg 19%
    07:00 +32°C° 0 mm 4 mps 756 mmHg 17%
    08:00 +34°C° 0 mm 5 mps 756 mmHg 15%
    09:00 +36°C° 0 mm 5 mps 756 mmHg 14%
    10:00 +39°C° 0 mm 5 mps 756 mmHg 14%
    11:00 +40°C° 0 mm 5 mps 756 mmHg 13%
    12:00 +40°C° 0 mm 5 mps 755 mmHg 14%
    13:00 +38°C° 0 mm 4 mps 755 mmHg 14%
    14:00 +38°C° 0 mm 4 mps 755 mmHg 15%
    15:00 +37°C° 0 mm 4 mps 755 mmHg 17%
    16:00 +36°C° 0 mm 4 mps 755 mmHg 18%
    17:00 +35°C° 0 mm 4 mps 755 mmHg 20%
    18:00 +30°C° 0 mm 3 mps 755 mmHg 31%
    19:00 +26°C° 0 mm 3 mps 756 mmHg 42%
    20:00 +21°C° 0 mm 2 mps 756 mmHg 53%
    21:00 +20°C° 0 mm 2 mps 756 mmHg 59%
    22:00 +20°C° 0 mm 1 mps 757 mmHg 65%
    23:00 +19°C° 0 mm 1 mps 757 mmHg 71%

    11 December, Sunday

    Time Temperature Precipitation Wind Pressure Humidity
    00:00 +18°C° 0 mm 1 mps 757 mmHg 74%
    01:00 +18°C° 0 mm 1 mps 756 mmHg 78%
    02:00 +16°C° 0 mm 1 mps 756 mmHg 81%
    03:00 +16°C° 0 mm 1 mps 756 mmHg 80%
    04:00 +16°C° 0 mm 1 mps 756 mmHg 79%
    05:00 +16°C° 0 mm 1 mps 756 mmHg 79%
    06:00 +21°C° 0 mm 1 mps 757 mmHg 65%
    07:00 +25°C° 0 mm 1 mps 757 mmHg 51%
    08:00 +29°C° 0 mm 2 mps 757 mmHg 37%
    09:00 +31°C° 0 mm 3 mps 757 mmHg 34%
    10:00 +33°C° 0 mm 4 mps 756 mmHg 30%
    11:00 +35°C° 0 mm 5 mps 756 mmHg 26%
    12:00 +35°C° 0.1 mm 5 mps 755 mmHg 24%
    13:00 +36°C° 0.1 mm 5 mps 755 mmHg 22%
    14:00 +37°C° 0.1 mm 5 mps 754 mmHg 19%
    15:00 +35°C° 0 mm 6 mps 754 mmHg 22%
    16:00 +33°C° 0 mm 6 mps 755 mmHg 25%
    17:00 +32°C° 0 mm 7 mps 755 mmHg 28%
    18:00 +27°C° 0.1 mm 5 mps 756 mmHg 38%
    19:00 +23°C° 0.1 mm 4 mps 757 mmHg 48%
    20:00 +20°C° 0.1 mm 3 mps 757 mmHg 58%
    21:00 +19°C° 0.1 mm 3 mps 758 mmHg 63%
    22:00 +18°C° 0.1 mm 3 mps 758 mmHg 68%
    23:00 +18°C° 0.1 mm 3 mps 759 mmHg 73%

    12 December, Monday

    Time Temperature Precipitation Wind Pressure Humidity
    00:00 +17°C° 0 mm 3 mps 759 mmHg 77%
    01:00 +17°C° 0 mm 4 mps 758 mmHg 81%
    02:00 +17°C° 0 mm 4 mps 758 mmHg 85%
    03:00 +17°C° 0 mm 4 mps 759 mmHg 84%
    04:00 +17°C° 0 mm 4 mps 759 mmHg 83%
    05:00 +16°C° 0 mm 5 mps 759 mmHg 83%
    06:00 +16°C° 0 mm 5 mps 760 mmHg 75%
    07:00 +17°C° 0 mm 5 mps 760 mmHg 67%
    08:00 +18°C° 0 mm 4 mps 761 mmHg 59%
    09:00 +20°C° 0 mm 4 mps 761 mmHg 48%
    10:00 +23°C° 0 mm 5 mps 761 mmHg 38%
    11:00 +26°C° 0 mm 5 mps 761 mmHg 27%
    12:00 +27°C° 0 mm 5 mps 761 mmHg 26%
    13:00 +28°C° 0 mm 5 mps 760 mmHg 25%
    14:00 +29°C° 0 mm 6 mps 760 mmHg 24%
    15:00 +28°C° 0 mm 6 mps 760 mmHg 27%
    16:00 +27°C° 0 mm 6 mps 760 mmHg 30%
    17:00 +27°C° 0 mm 6 mps 760 mmHg 34%
    18:00 +23°C° 0 mm 6 mps 760 mmHg 40%
    19:00 +21°C° 0 mm 6 mps 761 mmHg 47%
    20:00 +19°C° 0 mm 5 mps 762 mmHg 53%
    21:00 +17°C° 0 mm 5 mps 762 mmHg 54%
    22:00 +17°C° 0 mm 5 mps 762 mmHg 54%
    23:00 +16°C° 0 mm 5 mps 763 mmHg 55%

    13 December, Tuesday

    Time Temperature Precipitation Wind Pressure Humidity
    00:00 +15°C° 0 mm 5 mps 763 mmHg 56%
    01:00 +15°C° 0 mm 5 mps 763 mmHg 58%
    02:00 +14°C° 0 mm 5 mps 762 mmHg 59%
    03:00 +14°C° 0 mm 5 mps 763 mmHg 61%
    04:00 +14°C° 0 mm 4 mps 763 mmHg 62%
    05:00 +13°C° 0 mm 4 mps 763 mmHg 64%
    06:00 +15°C° 0 mm 4 mps 763 mmHg 57%
    07:00 +18°C° 0 mm 4 mps 764 mmHg 50%
    08:00 +21°C° 0 mm 4 mps 764 mmHg 43%
    09:00 +23°C° 0 mm 4 mps 764 mmHg 37%
    10:00 +27°C° 0 mm 4 mps 763 mmHg 30%
    11:00 +30°C° 0 mm 3 mps 763 mmHg 23%
    12:00 +32°C° 0 mm 4 mps 762 mmHg 21%
    13:00 +34°C° 0 mm 4 mps 762 mmHg 19%
    14:00 +35°C° 0 mm 4 mps 761 mmHg 17%
    15:00 +34°C° 0 mm 5 mps 761 mmHg 20%
    16:00 +34°C° 0 mm 5 mps 761 mmHg 22%
    17:00 +33°C° 0 mm 5 mps 760 mmHg 24%
    18:00 +29°C° 0 mm 5 mps 761 mmHg 35%
    19:00 +25°C° 0 mm 4 mps 761 mmHg 46%
    20:00 +21°C° 0 mm 4 mps 761 mmHg 57%
    21:00 +21°C° 0 mm 4 mps 762 mmHg 54%
    22:00 +21°C° 0 mm 4 mps 762 mmHg 50%
    23:00 +21°C° 0 mm 4 mps 762 mmHg 47%
    Show more